Location: Albany
(35.0000°S, 118.0000°E)
Time: 12:43:39
(UTC-04:00)

ISS - All Passes

Search period start: 30 March 2017 00:00
Search period end: 09 April 2017 00:00
Orbit: 399 x 409 km, 51.6° (Epoch: 31 March)

Date Brightness Start Highest point End Pass type
(mag) Time Alt. Az. Time Alt. Az. Time Alt. Az.
30 Mar - 00:24:49 10° S 00:26:01 11° SSE 00:27:13 10° SE daylight
30 Mar - 01:59:40 10° SW 02:03:00 75° SE 02:06:15 10° NE daylight
30 Mar - 17:02:54 10° NNE 17:04:05 11° NE 17:05:17 10° ENE visible
30 Mar - 18:36:55 10° WNW 18:40:11 54° SW 18:43:29 10° SE daylight
31 Mar - 01:07:26 10° SSW 01:10:33 36° SE 01:13:37 10° ENE daylight
31 Mar - 02:44:32 10° W 02:46:47 17° NW 02:49:02 10° N daylight
31 Mar - 17:44:28 10° NW 17:47:46 68° NE 17:51:06 10° SE visible
31 Mar - 19:22:34 10° WSW 19:24:34 15° SSW 19:26:35 10° S daylight
01 Apr - 00:15:24 10° SSW 00:18:00 21° SSE 00:20:33 10° E daylight
01 Apr - 01:51:28 10° WSW 01:54:32 36° NW 01:57:35 10° NNE daylight
01 Apr - 16:52:29 10° NNW 16:55:27 30° NE 16:58:26 10° ESE visible
01 Apr - 18:29:10 10° W 18:31:55 24° SSW 18:34:43 10° SSE daylight
01 Apr - 23:23:39 10° S 23:25:20 13° SSE 23:27:01 10° ESE daylight
02 Apr - 00:58:52 10° SW 01:02:12 84° NW 01:05:28 10° NE daylight
02 Apr - 16:01:14 10° NNE 16:03:11 15° NE 16:05:09 10° E visible
02 Apr - 17:36:10 10° WNW 17:39:23 42° SW 17:42:36 10° SE visible
03 Apr - 00:06:32 10° SW 00:09:44 45° SE 00:12:55 10° ENE daylight
03 Apr - 01:44:10 10° W 01:45:54 14° NW 01:47:37 10° NNW daylight
03 Apr - 16:43:34 10° NW 16:46:55 89° ENE 16:50:16 10° SE visible
03 Apr - 18:22:10 10° SW 18:23:48 13° SSW 18:25:26 10° S daylight
03 Apr - 23:14:22 10° SSW 23:17:11 24° SSE 23:19:58 10° E daylight
04 Apr - 00:50:44 10° WSW 00:53:38 28° NW 00:56:29 10° NNE daylight
04 Apr - 15:51:23 10° NNW 15:54:31 39° NE 15:57:40 10° ESE visible
04 Apr - 17:28:32 10° W 17:31:06 20° SSW 17:33:40 10° SSE visible
04 Apr - 22:22:27 10° S 22:24:31 15° SSE 22:26:34 10° ESE daylight
04 Apr - 23:57:59 10° SW 00:01:16 63° NW 00:04:31 10° NE daylight
05 Apr - 14:59:47 10° N 15:02:11 19° NE 15:04:37 10° E night (unlit)
05 Apr - 16:35:23 10° WNW 16:38:28 34° SW 16:41:35 10° SSE visible
05 Apr - 21:31:26 10° SSE 21:31:44 10° SSE 21:32:03 10° SSE daylight
05 Apr - 23:05:31 10° SW 23:08:49 58° SE 23:12:04 10° ENE daylight
06 Apr - 00:44:09 10° WNW 00:44:52 11° NW 00:45:34 10° NW daylight
06 Apr - 15:42:36 10° NW 15:45:56 71° SW 15:49:17 10° SE visible
06 Apr - 17:21:47 10° SW 17:22:55 11° SSW 17:24:03 10° S visible
06 Apr - 22:13:16 10° SSW 22:16:15 29° SE 22:19:12 10° E daylight
06 Apr - 23:49:58 10° WSW 23:52:36 22° NW 23:55:12 10° N daylight
07 Apr - 14:50:14 10° NNW 14:53:28 51° NE 14:56:44 10° ESE night (unlit)
07 Apr - 16:27:50 10° WSW 16:30:08 17° SSW 16:32:29 10° SSE visible
07 Apr - 21:21:12 10° SSW 21:23:34 18° SSE 21:25:55 10° ESE daylight
07 Apr - 22:57:01 10° WSW 23:00:14 48° NW 23:03:24 10° NNE daylight
08 Apr - 13:58:21 10° N 14:01:05 24° NE 14:03:50 10° ESE night (unlit)
08 Apr - 15:34:29 10° W 15:37:27 28° SW 15:40:26 10° SSE visible
08 Apr - 20:29:34 10° S 20:30:48 12° SSE 20:32:00 10° SE daylight
08 Apr - 22:04:25 10° SW 22:07:46 75° SE 22:11:02 10° NE daylight
